QPF
0.02 0.02 0.02 0.01 0.01 0.01 0.01 0.02 0.02 0.02 0.02 0.02 0.02 0.01 0.01 0.01 0.01 0.01 0.01 0.01 0.01 0.02 0.02 0.02 0.02 0.02 0.02 0.02 0.03 0.03 0.04 0.04 0.03 0.02 0.01 0.01 0.01 0.01 0.02 0.01 0.01 0.01 0.01
0.02 0.02 0.02 0.02 0.02 0.02 0.01 0.01 0.01 0.01 0.02 0.02 0.03 0.03 0.03 0.03 0.03 0.02 0.02 0.02 0.02 0.02 0.02 0.02 0.02 0.02 0.02 0.02 0.02 0.03 0.03 0.03 0.04 0.03 0.02 0.02 0.02 0.02 0.02 0.01 0.01 0.01 0.01
0.01 0.01 0.01 0.02 0.02 0.02 0.02 0.01 0.01 0.01 0.01 0.01 0.02 0.02 0.03 0.03 0.03 0.03 0.03 0.03 0.03 0.04 0.04 0.05 0.05 0.05 0.04 0.03 0.03 0.03 0.03 0.03 0.03 0.03 0.02 0.02 0.02 0.01 0.01 0.01 0.01 0.01 0.01
0.00 0.01 0.01 0.01 0.01 0.01 0.01 0.01 0.01 0.01 0.01 0.01 0.01 0.01 0.01 0.01 0.01 0.02 0.02 0.03 0.03 0.04 0.04 0.05 0.05 0.05 0.05 0.04 0.03 0.03 0.03 0.03 0.03 0.04 0.04 0.03 0.03 0.03 0.03 0.03 0.03 0.02 0.02
0.00 0.00 0.00 0.00 0.01 0.01 0.01 0.01 0.01 0.01 0.01 0.01 0.01 0.02 0.02 0.03 0.03 0.04 0.04 0.05 0.05 0.05 0.05 0.04 0.03 0.03 0.03 0.03 0.02 0.02 0.03 0.03 0.03 0.04 0.04 0.03 0.03 0.03 0.02 0.02 0.02 0.02 0.02
0.00 0.00 0.00 0.00 0.00 0.00 0.00 0.01 0.01 0.01 0.01 0.01 0.03 0.04 0.04 0.05 0.06 0.05 0.05 0.06 0.06 0.06 0.06 0.05 0.04 0.03 0.02 0.02 0.02 0.02 0.02 0.02 0.03 0.03 0.03 0.03 0.03 0.02 0.02 0.02 0.02 0.01 0.01
0.00 0.00 0.00 0.00 0.00 0.00 0.00 0.00 0.01 0.01 0.01 0.02 0.02 0.03 0.03 0.03 0.04 0.03 0.03 0.02 0.02 0.02 0.02 0.02 0.01 0.01 0.02 0.02 0.02 0.03 0.03 0.04 0.04 0.03 0.03 0.03 0.03 0.02 0.02 0.01 0.01 0.01 0.01
0.00 0.00 0.01 0.01 0.01 0.01 0.01 0.01 0.01 0.01 0.01 0.01 0.02 0.02 0.02 0.03 0.03 0.03 0.02 0.02 0.02 0.02 0.02 0.01 0.02 0.02 0.02 0.02 0.02 0.02 0.02 0.02 0.02 0.02 0.02 0.01 0.01 0.01 0.02 0.02 0.02 0.02 0.01
0.01 0.01 0.01 0.01 0.01 0.01 0.01 0.01 0.01 0.01 0.01 0.02 0.02 0.02 0.02 0.02 0.03 0.03 0.02 0.02 0.02 0.02 0.02 0.02 0.02 0.02 0.02 0.02 0.01 0.01 0.01 0.01 0.01 0.01 0.01 0.01 0.01 0.01 0.01 0.01 0.01 0.01 0.01
0.01 0.01 0.01 0.01 0.01 0.02 0.02 0.02 0.02 0.02 0.02 0.02 0.03 0.02 0.02 0.02 0.02 0.02 0.01 0.01 0.01 0.01 0.01 0.01 0.01 0.01 0.02 0.02 0.01 0.01 0.01 0.01 0.01 0.01 0.01 0.01 0.00 0.00 0.01 0.01 0.01 0.01 0.01
0.01 0.01 0.01 0.01 0.01 0.02 0.02 0.02 0.03 0.03 0.03 0.03 0.03 0.03 0.03 0.02 0.02 0.01 0.01 0.01 0.01 0.01 0.01 0.01 0.01 0.01 0.01 0.01 0.01 0.01 0.01 0.01 0.00 0.00 0.00 0.00 0.00 0.00 0.00 0.00 0.00 0.01 0.01
0.01 0.01 0.01 0.01 0.01 0.02 0.02 0.02 0.02 0.02 0.02 0.03 0.03 0.03 0.03 0.03 0.03 0.02 0.01 0.01 0.01 0.00 0.00 0.01 0.01 0.01 0.01 0.01 0.01 0.01 0.01 0.01 0.00 0.00 0.00 0.00 0.00 0.00 0.00 0.00 0.00 0.00 0.01
0.02 0.02 0.02 0.02 0.01 0.02 0.02 0.02 0.02 0.02 0.02 0.03 0.03 0.03 0.03 0.03 0.02 0.01 0.01 0.01 0.01 0.01 0.01 0.01 0.01 0.01 0.01 0.01 0.01 0.01 0.01 0.01 0.01 0.01 0.00 0.00 0.00 0.00 0.00 0.00 0.01 0.01 0.01
0.02 0.02 0.03 0.03 0.02 0.02 0.02 0.02 0.03 0.03 0.03 0.03 0.03 0.03 0.03 0.02 0.02 0.02 0.01 0.01 0.01 0.01 0.01 0.01 0.01 0.01 0.01 0.01 0.01 0.01 0.01 0.01 0.01 0.01 0.01 0.01 0.01 0.01 0.01 0.01 0.01 0.01 0.01
0.02 0.02 0.02 0.02 0.02 0.02 0.02 0.03 0.03 0.03 0.03 0.03 0.03 0.03 0.02 0.02 0.02 0.02 0.01 0.01 0.01 0.01 0.01 0.01 0.01 0.01 0.01 0.01 0.01 0.01 0.01 0.01 0.01 0.01 0.01 0.01 0.01 0.01 0.01 0.01 0.01 0.01 0.01
0.02 0.02 0.02 0.02 0.02 0.03 0.02 0.03 0.03 0.03 0.04 0.03 0.03 0.02 0.02 0.02 0.02 0.01 0.01 0.01 0.01 0.01 0.01 0.01 0.01 0.01 0.01 0.01 0.01 0.01 0.01 0.01 0.02 0.02 0.02 0.01 0.01 0.01 0.01 0.01 0.01 0.01 0.01
0.01 0.01 0.02 0.02 0.02 0.02 0.03 0.03 0.04 0.04 0.04 0.03 0.02 0.02 0.02 0.02 0.02 0.02 0.02 0.02 0.02 0.01 0.01 0.01 0.01 0.01 0.01 0.01 0.01 0.01 0.02 0.02 0.02 0.02 0.02 0.02 0.02 0.02 0.02 0.02 0.02 0.02 0.02
0.01 0.01 0.02 0.02 0.02 0.03 0.03 0.03 0.03 0.03 0.03 0.03 0.03 0.03 0.02 0.02 0.02 0.02 0.02 0.01 0.02 0.01 0.01 0.01 0.01 0.02 0.02 0.02 0.02 0.02 0.02 0.02 0.02 0.03 0.03 0.03 0.03 0.03 0.02 0.02 0.02 0.02 0.02
0.02 0.02 0.02 0.03 0.03 0.03 0.04 0.04 0.04 0.03 0.02 0.03 0.03 0.03 0.02 0.02 0.02 0.02 0.02 0.01 0.01 0.01 0.01 0.01 0.02 0.02 0.02 0.02 0.02 0.02 0.02 0.02 0.03 0.03 0.03 0.03 0.03 0.03 0.03 0.02 0.02 0.02 0.02
0.03 0.03 0.03 0.03 0.04 0.04 0.04 0.04 0.04 0.03 0.03 0.03 0.02 0.02 0.02 0.02 0.02 0.02 0.01 0.01 0.01 0.01 0.01 0.02 0.02 0.02 0.02 0.02 0.02 0.02 0.02 0.03 0.03 0.03 0.03 0.03 0.03 0.03 0.03 0.03 0.03 0.03 0.03
0.03 0.04 0.04 0.04 0.04 0.04 0.04 0.04 0.03 0.03 0.03 0.03 0.02 0.02 0.02 0.02 0.01 0.01 0.01 0.01 0.01 0.01 0.01 0.02 0.02 0.02 0.02 0.02 0.02 0.02 0.02 0.02 0.03 0.03 0.03 0.03 0.03 0.03 0.03 0.03 0.03 0.02 0.02
0.03 0.04 0.04 0.05 0.04 0.04 0.04 0.04 0.03 0.03 0.02 0.02 0.02 0.02 0.02 0.02 0.01 0.01 0.01 0.01 0.02 0.02 0.02 0.02 0.02 0.02 0.02 0.02 0.02 0.02 0.02 0.02 0.02 0.02 0.02 0.03 0.03 0.03 0.03 0.03 0.02 0.02 0.02
0.03 0.04 0.04 0.04 0.04 0.04 0.04 0.04 0.03 0.03 0.02 0.02 0.02 0.02 0.01 0.01 0.01 0.01 0.01 0.01 0.01 0.02 0.02 0.02 0.02 0.02 0.02 0.02 0.02 0.02 0.02 0.02 0.02 0.02 0.02 0.02 0.02 0.02 0.02 0.02 0.02 0.02 0.02
0.03 0.03 0.03 0.03 0.03 0.03 0.03 0.03 0.03 0.02 0.02 0.02 0.01 0.01 0.01 0.01 0.01 0.01 0.01 0.01 0.01 0.01 0.01 0.01 0.01 0.01 0.01 0.01 0.01 0.01 0.02 0.02 0.02 0.02 0.02 0.02 0.02 0.02 0.02 0.02 0.02 0.02 0.02
0.03 0.03 0.03 0.02 0.02 0.02 0.02 0.02 0.02 0.02 0.02 0.01 0.01 0.01 0.01 0.01 0.01 0.01 0.01 0.01 0.01 0.01 0.01 0.01 0.01 0.01 0.01 0.01 0.01 0.01 0.01 0.01 0.01 0.02 0.02 0.02 0.02 0.02 0.02 0.02 0.02 0.02 0.02
0.02 0.02 0.02 0.02 0.02 0.02 0.02 0.01 0.01 0.01 0.01 0.01 0.01 0.01 0.01 0.01 0.01 0.01 0.01 0.01 0.01 0.01 0.01 0.01 0.01 0.01 0.01 0.01 0.01 0.01 0.01 0.01 0.01 0.02 0.01 0.01 0.01 0.01 0.01 0.01 0.01 0.01 0.01
MSLP
1010.35 1010.39 1010.44 1010.52 1010.62 1010.75 1010.89 1011.05 1011.22 1011.38 1011.52 1011.63 1011.71 1011.74 1011.74 1011.73 1011.72 1011.74 1011.79 1011.87 1011.99 1012.11 1012.22 1012.32 1012.39 1012.44 1012.52 1012.65 1012.90 1013.30 1013.88 1014.64 1015.56 1016.60 1017.68 1018.72 1019.65 1020.40 1020.95 1021.29 1021.44 1021.44 1021.35
1010.65 1010.69 1010.76 1010.84 1010.93 1011.03 1011.14 1011.26 1011.39 1011.49 1011.58 1011.63 1011.65 1011.63 1011.59 1011.54 1011.52 1011.52 1011.57 1011.65 1011.76 1011.88 1011.98 1012.05 1012.10 1012.13 1012.18 1012.30 1012.53 1012.93 1013.53 1014.31 1015.28 1016.36 1017.50 1018.61 1019.61 1020.43 1021.05 1021.45 1021.66 1021.71 1021.66
1010.84 1010.92 1011.02 1011.11 1011.20 1011.29 1011.39 1011.47 1011.55 1011.61 1011.64 1011.65 1011.61 1011.56 1011.50 1011.45 1011.42 1011.45 1011.52 1011.63 1011.77 1011.92 1012.04 1012.12 1012.17 1012.19 1012.22 1012.32 1012.52 1012.89 1013.46 1014.22 1015.17 1016.24 1017.38 1018.50 1019.52 1020.38 1021.04 1021.49 1021.76 1021.87 1021.88
1010.87 1011.00 1011.12 1011.24 1011.34 1011.43 1011.52 1011.58 1011.63 1011.66 1011.66 1011.63 1011.58 1011.52 1011.45 1011.41 1011.42 1011.48 1011.60 1011.77 1011.97 1012.16 1012.33 1012.45 1012.51 1012.54 1012.57 1012.64 1012.82 1013.14 1013.65 1014.35 1015.23 1016.24 1017.33 1018.41 1019.41 1020.27 1020.96 1021.46 1021.78 1021.96 1022.03
1010.72 1010.88 1011.03 1011.17 1011.29 1011.39 1011.48 1011.54 1011.59 1011.61 1011.60 1011.57 1011.53 1011.47 1011.43 1011.42 1011.47 1011.58 1011.76 1011.99 1012.24 1012.50 1012.72 1012.89 1013.00 1013.05 1013.09 1013.16 1013.31 1013.59 1014.03 1014.65 1015.44 1016.37 1017.37 1018.38 1019.33 1020.17 1020.87 1021.40 1021.78 1022.03 1022.18
1010.41 1010.59 1010.76 1010.91 1011.05 1011.16 1011.26 1011.34 1011.41 1011.45 1011.47 1011.47 1011.45 1011.43 1011.42 1011.46 1011.54 1011.70 1011.92 1012.20 1012.51 1012.82 1013.10 1013.33 1013.49 1013.59 1013.67 1013.75 1013.90 1014.15 1014.53 1015.09 1015.79 1016.62 1017.53 1018.46 1019.35 1020.16 1020.84 1021.40 1021.83 1022.14 1022.37
1010.02 1010.20 1010.36 1010.52 1010.65 1010.78 1010.91 1011.02 1011.12 1011.22 1011.28 1011.33 1011.36 1011.38 1011.42 1011.48 1011.60 1011.78 1012.03 1012.34 1012.68 1013.04 1013.37 1013.66 1013.88 1014.05 1014.18 1014.32 1014.49 1014.74 1015.11 1015.61 1016.25 1017.00 1017.82 1018.68 1019.51 1020.28 1020.96 1021.53 1021.99 1022.37 1022.66
1009.65 1009.79 1009.93 1010.07 1010.20 1010.33 1010.48 1010.63 1010.78 1010.93 1011.06 1011.17 1011.25 1011.33 1011.40 1011.49 1011.62 1011.81 1012.07 1012.38 1012.73 1013.11 1013.48 1013.83 1014.12 1014.38 1014.59 1014.80 1015.03 1015.33 1015.72 1016.21 1016.82 1017.51 1018.28 1019.07 1019.85 1020.59 1021.25 1021.83 1022.33 1022.74 1023.08
1009.38 1009.48 1009.57 1009.66 1009.77 1009.89 1010.04 1010.22 1010.41 1010.61 1010.80 1010.97 1011.11 1011.23 1011.34 1011.45 1011.58 1011.77 1012.01 1012.31 1012.66 1013.06 1013.46 1013.86 1014.23 1014.58 1014.90 1015.21 1015.54 1015.91 1016.35 1016.87 1017.47 1018.15 1018.88 1019.63 1020.38 1021.08 1021.73 1022.31 1022.82 1023.25 1023.62
1009.27 1009.30 1009.32 1009.35 1009.41 1009.51 1009.64 1009.83 1010.04 1010.27 1010.51 1010.72 1010.91 1011.06 1011.19 1011.32 1011.46 1011.63 1011.86 1012.16 1012.51 1012.91 1013.36 1013.81 1014.27 1014.71 1015.15 1015.58 1016.02 1016.49 1017.01 1017.58 1018.21 1018.89 1019.60 1020.33 1021.04 1021.72 1022.35 1022.93 1023.43 1023.88 1024.26
1009.30 1009.26 1009.21 1009.16 1009.15 1009.18 1009.28 1009.43 1009.64 1009.87 1010.12 1010.36 1010.58 1010.76 1010.92 1011.07 1011.22 1011.41 1011.64 1011.94 1012.31 1012.75 1013.24 1013.76 1014.30 1014.85 1015.41 1015.96 1016.51 1017.08 1017.68 1018.31 1018.98 1019.67 1020.38 1021.09 1021.78 1022.45 1023.06 1023.62 1024.12 1024.56 1024.94
1009.42 1009.31 1009.17 1009.04 1008.94 1008.89 1008.91 1009.00 1009.16 1009.37 1009.61 1009.85 1010.09 1010.29 1010.48 1010.67 1010.86 1011.08 1011.35 1011.70 1012.11 1012.60 1013.16 1013.76 1014.40 1015.05 1015.71 1016.36 1017.02 1017.68 1018.35 1019.04 1019.73 1020.44 1021.15 1021.85 1022.53 1023.18 1023.78 1024.32 1024.82 1025.25 1025.62
1009.57 1009.38 1009.16 1008.92 1008.71 1008.55 1008.47 1008.48 1008.56 1008.71 1008.91 1009.14 1009.38 1009.62 1009.85 1010.09 1010.35 1010.64 1010.99 1011.41 1011.91 1012.49 1013.13 1013.83 1014.55 1015.30 1016.05 1016.80 1017.53 1018.27 1018.99 1019.71 1020.43 1021.15 1021.85 1022.55 1023.22 1023.85 1024.44 1024.99 1025.48 1025.91 1026.28
1009.64 1009.37 1009.05 1008.71 1008.39 1008.11 1007.92 1007.81 1007.79 1007.87 1008.02 1008.22 1008.46 1008.73 1009.02 1009.34 1009.69 1010.09 1010.55 1011.09 1011.70 1012.38 1013.13 1013.92 1014.74 1015.58 1016.40 1017.22 1018.01 1018.78 1019.53 1020.28 1021.01 1021.73 1022.43 1023.13 1023.80 1024.44 1025.03 1025.58 1026.08 1026.52 1026.89
1009.54 1009.20 1008.78 1008.34 1007.90 1007.51 1007.19 1006.97 1006.85 1006.84 1006.93 1007.11 1007.35 1007.66 1008.02 1008.43 1008.90 1009.43 1010.03 1010.70 1011.44 1012.25 1013.11 1014.00 1014.90 1015.80 1016.69 1017.55 1018.38 1019.17 1019.95 1020.70 1021.43 1022.16 1022.88 1023.58 1024.27 1024.92 1025.54 1026.11 1026.63 1027.08 1027.47
1009.23 1008.80 1008.30 1007.76 1007.22 1006.72 1006.30 1005.97 1005.77 1005.69 1005.73 1005.88 1006.14 1006.49 1006.92 1007.44 1008.03 1008.69 1009.43 1010.24 1011.12 1012.05 1013.01 1013.99 1014.97 1015.92 1016.85 1017.74 1018.59 1019.41 1020.20 1020.96 1021.72 1022.46 1023.20 1023.92 1024.64 1025.33 1025.98 1026.59 1027.14 1027.63 1028.04
1008.68 1008.17 1007.59 1006.97 1006.35 1005.78 1005.28 1004.89 1004.62 1004.49 1004.50 1004.65 1004.93 1005.33 1005.84 1006.45 1007.15 1007.94 1008.80 1009.74 1010.73 1011.76 1012.81 1013.86 1014.90 1015.90 1016.86 1017.78 1018.65 1019.49 1020.30 1021.09 1021.87 1022.65 1023.42 1024.19 1024.95 1025.69 1026.40 1027.05 1027.64 1028.16 1028.59
1007.93 1007.35 1006.70 1006.03 1005.37 1004.75 1004.22 1003.79 1003.50 1003.36 1003.37 1003.53 1003.85 1004.30 1004.88 1005.57 1006.37 1007.25 1008.22 1009.25 1010.32 1011.42 1012.53 1013.63 1014.71 1015.74 1016.73 1017.68 1018.58 1019.45 1020.29 1021.12 1021.95 1022.78 1023.61 1024.44 1025.25 1026.04 1026.80 1027.49 1028.12 1028.67 1029.12
1007.03 1006.38 1005.70 1005.01 1004.34 1003.72 1003.20 1002.79 1002.53 1002.41 1002.45 1002.65 1003.01 1003.51 1004.15 1004.91 1005.77 1006.73 1007.76 1008.84 1009.96 1011.10 1012.24 1013.36 1014.46 1015.52 1016.53 1017.50 1018.44 1019.34 1020.23 1021.12 1022.00 1022.89 1023.78 1024.67 1025.54 1026.38 1027.18 1027.91 1028.57 1029.14 1029.60
1006.03 1005.35 1004.66 1003.99 1003.36 1002.79 1002.33 1001.98 1001.77 1001.71 1001.82 1002.07 1002.49 1003.05 1003.74 1004.54 1005.45 1006.44 1007.50 1008.60 1009.74 1010.88 1012.02 1013.15 1014.24 1015.31 1016.34 1017.33 1018.30 1019.25 1020.19 1021.13 1022.07 1023.02 1023.96 1024.90 1025.81 1026.69 1027.52 1028.28 1028.95 1029.53 1029.99
1005.02 1004.35 1003.70 1003.08 1002.52 1002.04 1001.67 1001.42 1001.30 1001.34 1001.52 1001.85 1002.33 1002.95 1003.68 1004.52 1005.45 1006.46 1007.52 1008.61 1009.73 1010.85 1011.97 1013.08 1014.16 1015.21 1016.24 1017.25 1018.24 1019.23 1020.21 1021.19 1022.17 1023.16 1024.15 1025.11 1026.05 1026.94 1027.78 1028.54 1029.22 1029.79 1030.25
1004.10 1003.47 1002.88 1002.35 1001.90 1001.53 1001.28 1001.14 1001.14 1001.27 1001.55 1001.97 1002.52 1003.18 1003.96 1004.83 1005.78 1006.78 1007.82 1008.89 1009.98 1011.06 1012.14 1013.21 1014.26 1015.29 1016.31 1017.32 1018.31 1019.31 1020.30 1021.30 1022.31 1023.31 1024.30 1025.27 1026.20 1027.09 1027.92 1028.67 1029.33 1029.89 1030.34
1003.33 1002.78 1002.30 1001.88 1001.54 1001.30 1001.17 1001.16 1001.27 1001.51 1001.88 1002.37 1002.99 1003.71 1004.53 1005.41 1006.37 1007.36 1008.39 1009.43 1010.47 1011.52 1012.55 1013.57 1014.57 1015.57 1016.55 1017.53 1018.50 1019.48 1020.46 1021.45 1022.43 1023.42 1024.39 1025.33 1026.24 1027.11 1027.91 1028.63 1029.28 1029.82 1030.27
1002.81 1002.36 1001.99 1001.69 1001.47 1001.35 1001.34 1001.43 1001.64 1001.97 1002.42 1002.98 1003.65 1004.42 1005.27 1006.17 1007.13 1008.12 1009.13 1010.14 1011.15 1012.14 1013.12 1014.09 1015.04 1015.98 1016.91 1017.84 1018.76 1019.69 1020.63 1021.57 1022.51 1023.45 1024.37 1025.28 1026.15 1026.97 1027.74 1028.44 1029.07 1029.61 1030.06
1002.58 1002.25 1001.99 1001.80 1001.69 1001.67 1001.74 1001.92 1002.20 1002.59 1003.09 1003.71 1004.41 1005.21 1006.08 1006.99 1007.96 1008.94 1009.93 1010.91 1011.89 1012.84 1013.77 1014.68 1015.57 1016.44 1017.30 1018.16 1019.02 1019.88 1020.74 1021.62 1022.49 1023.37 1024.23 1025.08 1025.91 1026.70 1027.44 1028.13 1028.75 1029.29 1029.74
1002.67 1002.45 1002.29 1002.20 1002.17 1002.22 1002.35 1002.58 1002.90 1003.32 1003.84 1004.47 1005.19 1006.00 1006.86 1007.78 1008.74 1009.71 1010.68 1011.64 1012.58 1013.48 1014.36 1015.21 1016.04 1016.84 1017.62 1018.41 1019.18 1019.96 1020.74 1021.54 1022.34 1023.15 1023.96 1024.76 1025.55 1026.31 1027.04 1027.72 1028.34 1028.89 1029.36
Thickness
5591 5592 5592 5592 5592 5592 5590 5589 5588 5587 5585 5583 5581 5579 5577 5575 5573 5570 5568 5564 5562 5559 5556 5553 5550 5546 5542 5538 5535 5531 5527 5523 5519 5515 5509 5504 5499 5496 5493 5490 5487 5484 5482
5574 5575 5576 5577 5576 5575 5575 5574 5573 5571 5570 5569 5567 5565 5563 5560 5558 5555 5553 5550 5547 5545 5542 5538 5535 5532 5528 5525 5521 5517 5513 5509 5505 5501 5495 5490 5485 5482 5479 5476 5472 5470 5467
5555 5557 5558 5559 5559 5559 5558 5557 5556 5555 5554 5552 5550 5549 5547 5545 5542 5539 5537 5534 5531 5529 5526 5523 5520 5517 5513 5509 5506 5503 5499 5495 5490 5486 5481 5476 5471 5467 5464 5461 5458 5454 5451
5537 5539 5540 5541 5541 5541 5540 5539 5538 5538 5536 5535 5533 5532 5530 5528 5526 5523 5520 5517 5514 5511 5509 5506 5503 5501 5497 5493 5490 5487 5483 5479 5475 5470 5466 5460 5456 5452 5448 5445 5443 5439 5436
5518 5520 5521 5521 5522 5522 5521 5520 5520 5519 5518 5516 5515 5513 5512 5510 5509 5506 5503 5501 5498 5495 5492 5489 5486 5483 5480 5477 5474 5470 5467 5463 5459 5455 5450 5445 5440 5436 5432 5428 5425 5423 5421
5499 5500 5501 5502 5502 5502 5502 5501 5501 5500 5498 5497 5496 5495 5493 5492 5491 5489 5486 5483 5480 5478 5474 5471 5468 5465 5463 5460 5456 5453 5449 5446 5443 5438 5434 5429 5424 5419 5415 5411 5407 5405 5405
5479 5480 5481 5482 5482 5482 5482 5481 5481 5480 5479 5478 5476 5476 5475 5474 5473 5471 5468 5465 5462 5459 5456 5453 5451 5448 5445 5442 5439 5435 5431 5427 5424 5420 5416 5412 5407 5403 5399 5395 5390 5386 5384
5460 5461 5461 5462 5463 5463 5462 5462 5462 5461 5460 5459 5458 5457 5456 5455 5454 5453 5450 5447 5444 5441 5437 5435 5433 5430 5427 5424 5421 5417 5413 5409 5405 5402 5398 5395 5391 5386 5383 5378 5373 5369 5366
5443 5444 5444 5445 5445 5445 5445 5444 5443 5443 5442 5441 5439 5438 5438 5437 5436 5434 5433 5430 5426 5423 5420 5417 5415 5413 5410 5407 5404 5400 5396 5391 5387 5383 5380 5376 5373 5369 5365 5360 5355 5352 5350
5426 5426 5426 5427 5428 5428 5427 5426 5426 5425 5424 5423 5422 5420 5419 5419 5418 5416 5415 5413 5410 5406 5402 5399 5397 5395 5393 5389 5385 5382 5377 5372 5368 5365 5361 5358 5354 5350 5347 5343 5339 5334 5330
5408 5408 5408 5409 5410 5410 5410 5409 5408 5407 5406 5405 5404 5402 5401 5400 5400 5399 5397 5394 5392 5388 5385 5382 5380 5377 5375 5371 5367 5363 5359 5354 5350 5347 5343 5340 5336 5332 5329 5325 5321 5318 5314
5391 5391 5392 5392 5393 5393 5393 5393 5391 5390 5389 5387 5386 5384 5383 5383 5382 5381 5379 5376 5374 5371 5368 5365 5363 5360 5357 5353 5349 5346 5342 5337 5332 5328 5325 5323 5319 5316 5312 5309 5306 5302 5298
5375 5375 5376 5376 5376 5376 5377 5376 5375 5374 5373 5372 5370 5369 5367 5365 5364 5363 5361 5359 5356 5353 5350 5348 5345 5342 5339 5335 5332 5328 5323 5319 5316 5312 5308 5305 5301 5298 5296 5293 5290 5287 5283
5359 5359 5360 5360 5360 5359 5360 5360 5359 5359 5357 5356 5355 5353 5351 5349 5348 5346 5343 5341 5339 5335 5332 5329 5326 5323 5320 5316 5313 5309 5305 5301 5298 5294 5290 5286 5284 5281 5279 5276 5273 5270 5268
5343 5343 5343 5343 5343 5343 5343 5343 5344 5344 5343 5342 5341 5339 5337 5335 5333 5331 5328 5325 5322 5318 5314 5310 5307 5304 5301 5297 5294 5291 5287 5284 5280 5277 5273 5270 5268 5265 5262 5259 5256 5253 5250
5328 5328 5328 5327 5326 5326 5326 5327 5328 5328 5328 5326 5326 5324 5322 5321 5318 5316 5313 5310 5306 5303 5297 5293 5289 5286 5283 5280 5276 5273 5270 5267 5263 5260 5257 5254 5251 5248 5246 5243 5240 5236 5234
5313 5313 5312 5311 5311 5311 5310 5310 5310 5310 5310 5309 5308 5307 5306 5304 5303 5301 5297 5294 5289 5286 5279 5276 5272 5269 5266 5262 5259 5256 5253 5250 5246 5243 5241 5238 5235 5232 5230 5227 5225 5222 5219
5298 5297 5297 5295 5295 5295 5294 5294 5293 5293 5292 5290 5289 5289 5288 5287 5286 5284 5281 5276 5270 5266 5262 5259 5255 5252 5249 5246 5242 5239 5236 5233 5230 5227 5224 5222 5219 5216 5214 5211 5209 5206 5204
5284 5284 5282 5281 5281 5280 5279 5278 5277 5276 5275 5273 5273 5272 5271 5270 5268 5266 5263 5259 5254 5250 5246 5243 5240 5237 5234 5230 5227 5224 5221 5218 5215 5211 5209 5206 5204 5201 5198 5196 5194 5191 5189
5271 5271 5270 5268 5267 5265 5264 5263 5261 5261 5259 5258 5257 5257 5255 5253 5250 5248 5245 5243 5240 5236 5233 5229 5226 5223 5220 5217 5213 5210 5207 5204 5200 5197 5194 5192 5189 5186 5184 5181 5179 5176 5174
5258 5258 5257 5255 5254 5252 5251 5249 5248 5247 5245 5244 5243 5244 5244 5240 5237 5234 5231 5229 5226 5224 5221 5217 5215 5212 5209 5205 5201 5198 5194 5191 5188 5184 5181 5178 5175 5172 5170 5167 5165 5163 5160
5247 5246 5244 5243 5242 5240 5238 5237 5235 5234 5232 5231 5230 5229 5230 5226 5223 5221 5218 5216 5213 5211 5209 5206 5203 5201 5198 5195 5191 5187 5183 5180 5176 5172 5169 5166 5163 5160 5157 5154 5151 5150 5148
5236 5234 5233 5231 5230 5228 5226 5224 5223 5221 5220 5218 5217 5216 5214 5212 5210 5208 5205 5203 5201 5199 5197 5195 5193 5190 5187 5184 5181 5178 5174 5171 5167 5162 5158 5155 5151 5148 5144 5141 5139 5137 5135
5225 5223 5222 5220 5218 5216 5214 5212 5211 5210 5209 5207 5205 5203 5201 5199 5197 5195 5194 5192 5190 5188 5186 5184 5182 5180 5177 5174 5170 5167 5164 5161 5157 5153 5149 5145 5141 5137 5133 5130 5128 5125 5123
5213 5212 5210 5208 5207 5205 5203 5202 5200 5199 5197 5196 5194 5192 5189 5188 5186 5184 5183 5181 5179 5177 5175 5173 5171 5169 5167 5164 5160 5158 5155 5151 5148 5144 5140 5136 5131 5127 5123 5120 5117 5114 5112
5202 5201 5199 5198 5196 5195 5194 5192 5190 5189 5187 5186 5184 5182 5180 5178 5176 5174 5173 5171 5169 5167 5165 5163 5161 5159 5156 5154 5151 5148 5145 5142 5138 5135 5131 5126 5122 5118 5114 5110 5107 5104 5101